Theta_e
291 291 292 292 293 293 293 293 293 292 291 292 293 295 296 297 296 296 297 295 294 294 294 294 294 295 296 299 300 300 300 299 299 299 299 298 298 298 297 297 297 297 296 296 296 296 296 296 296 296 296 296 297 297 297 297 297 297 297 297 297 297 297 297 297 297 297 296 296 296 296 296 296 296 296 296 296 297 297 297 297 297 298 299 300 300
290 290 291 292 292 292 292 293 293 292 291 291 292 294 294 294 294 294 294 294 293 293 293 293 292 292 293 297 299 299 299 299 299 298 298 298 297 297 297 297 297 296 296 296 295 295 295 295 295 295 295 295 296 296 296 296 296 296 296 296 296 296 296 296 296 296 296 296 295 295 295 295 295 295 296 296 296 297 297 297 297 297 298 299 300 300
288 289 290 290 291 291 291 292 292 292 292 291 292 293 293 293 292 292 291 292 292 292 292 292 292 292 292 295 298 299 299 298 298 298 298 297 297 297 297 296 296 296 296 295 295 295 295 295 295 295 294 295 295 295 295 295 295 295 295 295 295 295 295 295 295 295 295 295 294 294 294 294 295 295 296 296 296 297 297 297 297 297 298 299 299 300
287 288 289 290 290 290 291 291 292 292 292 292 292 292 292 291 291 290 290 290 290 291 292 291 291 291 291 293 296 298 298 298 298 297 297 297 297 296 296 296 296 296 295 295 295 294 294 294 294 294 294 294 294 294 294 294 294 294 294 294 294 294 294 294 294 294 294 294 294 294 294 294 294 295 295 295 296 296 296 297 297 297 298 298 299 300
287 287 288 288 289 289 290 290 291 291 292 291 291 291 291 290 290 289 289 289 289 290 290 291 291 290 291 291 294 297 297 297 297 297 296 296 296 296 295 295 295 295 295 295 294 294 294 294 294 293 293 293 293 293 293 293 293 293 293 293 293 293 293 293 294 293 293 293 293 293 294 294 294 294 294 295 295 295 296 296 297 297 298 298 299 299
287 287 288 288 288 288 288 289 290 290 290 290 290 290 289 289 289 289 289 288 288 288 289 289 289 290 290 291 294 296 297 296 296 296 296 295 295 295 295 295 295 294 294 294 294 294 293 293 293 293 293 293 293 293 293 293 293 293 293 293 293 293 293 293 293 293 293 293 293 293 293 293 293 294 294 294 295 295 295 296 296 296 297 298 298 299
286 287 287 287 287 287 287 288 289 289 289 289 288 288 288 288 288 288 287 287 287 287 287 288 288 288 288 290 293 295 295 295 295 295 295 295 295 294 294 294 294 294 294 294 293 293 293 293 293 293 293 293 293 293 293 293 293 293 293 293 293 293 293 293 293 293 293 293 293 293 293 293 293 293 293 294 294 294 295 295 295 296 296 297 297 298
286 286 286 285 285 286 286 287 288 288 288 288 287 287 287 287 287 286 286 286 285 285 286 286 286 286 286 287 289 291 291 291 291 292 293 293 293 293 293 293 293 293 293 293 293 293 293 293 293 292 292 292 292 292 292 292 292 292 292 292 292 293 293 293 293 293 293 293 293 293 293 293 293 293 293 294 294 294 294 294 295 295 295 296 296 297
285 285 285 284 284 284 284 285 286 287 287 287 287 286 286 285 285 285 285 284 284 284 284 284 284 284 284 284 285 287 288 288 288 288 288 288 289 290 292 292 292 292 292 292 292 292 292 292 292 292 292 292 292 292 292 292 292 292 292 292 292 292 292 293 293 293 293 293 293 293 293 293 293 293 293 293 293 294 294 294 295 295 295 295 296 296
286 285 284 284 284 284 284 284 285 286 286 286 286 286 285 285 284 284 284 283 283 283 284 283 283 283 283 283 284 285 287 288 289 289 290 289 289 290 291 291 291 291 292 292 292 292 292 292 292 292 292 292 292 292 292 291 291 292 292 292 292 292 292 292 293 293 293 293 293 293 293 293 293 293 293 293 293 293 293 294 294 294 294 295 295 296
286 285 284 284 284 284 284 283 284 285 285 286 285 285 285 285 284 284 283 282 282 283 283 283 283 283 282 282 283 284 285 285 287 289 290 290 290 291 291 291 291 291 291 291 291 291 291 291 291 291 291 291 291 291 291 291 291 291 292 292 292 292 292 292 293 293 293 293 293 293 293 293 293 293 293 293 293 293 293 293 293 293 294 294 295 295
286 285 285 284 284 284 283 283 284 284 285 285 284 284 284 284 284 284 283 282 282 282 282 283 283 283 283 283 283 283 284 283 283 284 284 285 286 287 288 288 288 289 289 290 290 290 291 291 291 291 290 290 291 291 291 291 291 291 292 292 292 292 292 292 292 293 293 293 293 293 293 293 293 293 293 293 293 293 293 293 293 293 293 293 294 295
286 286 285 285 284 284 283 283 283 283 283 283 283 282 283 283 284 283 282 282 283 283 282 282 283 283 283 283 283 283 283 283 282 282 282 282 282 283 283 283 284 284 285 286 286 287 290 290 290 290 290 290 290 290 290 290 291 291 292 292 292 292 292 292 292 292 292 292 292 293 293 293 293 293 293 293 293 293 293 293 293 293 293 293 293 294
286 286 285 284 284 284 283 283 282 282 282 283 283 283 283 284 284 283 282 282 282 282 282 282 282 282 283 283 283 283 283 283 283 282 282 282 281 281 281 282 282 282 283 282 282 284 289 289 288 288 289 289 289 289 290 290 291 291 292 292 292 292 292 292 292 292 292 292 292 292 292 292 292 292 292 292 292 292 292 292 292 292 293 293 293 294
286 285 285 284 283 283 283 283 282 282 283 283 283 283 283 283 283 283 282 282 282 282 282 281 281 281 282 282 282 283 283 283 282 282 281 281 281 281 281 281 282 282 282 282 282 283 287 287 285 285 287 287 288 289 289 290 291 291 292 292 292 292 292 292 292 292 292 292 292 292 292 292 292 292 292 292 292 292 292 292 292 292 292 293 293 293
286 286 285 284 284 283 283 283 283 283 283 283 284 283 283 283 283 283 282 282 282 282 282 281 280 280 280 281 282 283 282 282 282 281 281 281 281 281 280 281 281 281 282 282 282 282 284 284 284 283 284 287 288 289 290 290 291 291 292 292 292 292 292 292 291 291 291 292 292 292 292 292 292 292 292 292 292 292 292 292 292 292 292 292 293 293
287 286 286 285 284 284 284 284 284 284 284 284 284 284 283 283 283 283 283 282 282 282 281 281 280 279 279 280 282 282 282 282 281 280 280 281 281 281 280 280 281 281 281 282 282 281 282 282 283 283 284 288 289 290 290 290 291 291 292 292 292 292 291 291 291 291 291 291 291 291 291 291 291 291 291 292 292 292 292 292 292 292 292 292 292 293
288 287 287 286 285 284 284 284 284 284 284 284 284 284 283 284 283 283 283 282 282 281 281 280 280 279 279 279 280 282 282 282 281 280 280 280 280 280 280 280 281 281 281 281 281 282 281 281 281 282 285 288 290 290 290 290 291 291 291 291 291 291 291 291 291 291 291 291 291 291 291 291 291 291 291 291 291 292 292 292 292 292 292 292 292 292
288 288 287 286 285 285 284 284 284 284 284 284 284 283 283 283 283 283 282 282 282 281 281 280 280 279 279 279 280 281 282 282 281 280 279 279 280 280 280 281 281 281 280 281 281 282 281 281 284 287 289 290 290 290 290 291 291 291 291 291 291 291 291 291 290 290 290 291 291 291 291 291 291 291 291 291 291 291 291 292 292 292 292 292 292 292
288 288 288 287 286 285 284 284 285 285 285 285 284 284 283 283 283 283 282 282 282 281 281 280 279 279 280 280 280 281 281 281 280 280 279 279 279 280 279 280 280 280 279 280 280 281 280 280 283 286 290 290 290 290 290 290 290 290 290 291 291 291 291 290 290 290 290 290 290 291 291 291 291 291 291 291 291 291 291 291 291 292 292 292 292 292
288 288 288 287 286 285 285 285 285 286 286 286 285 283 283 283 283 283 282 282 282 281 281 280 280 280 281 281 280 280 280 281 281 280 279 279 279 279 279 279 279 279 279 280 280 281 280 280 281 283 288 289 290 290 290 290 290 290 290 291 291 291 291 290 290 290 290 290 290 290 290 290 290 290 290 290 291 291 291 291 291 291 291 291 292 292
289 288 286 286 286 286 286 285 286 287 287 286 284 283 283 283 283 282 282 282 282 281 281 281 281 281 282 281 281 280 280 281 281 280 280 279 279 279 279 279 279 278 279 279 280 280 280 280 281 283 288 290 290 290 290 290 290 290 290 291 291 291 290 290 290 290 290 290 290 290 290 290 290 290 290 290 291 291 291 291 291 291 291 291 292 292
288 287 286 286 286 286 286 285 286 287 287 286 285 284 284 284 283 283 283 282 282 282 282 282 282 282 282 281 281 280 280 281 280 280 280 279 278 279 279 279 279 279 279 279 279 280 280 280 281 283 287 289 290 290 290 290 290 290 290 291 291 291 290 290 290 289 289 290 290 290 290 290 290 290 290 290 290 291 291 291 291 291 291 291 291 291
286 286 285 285 285 285 285 285 286 286 286 285 285 284 284 284 283 283 283 283 283 283 283 282 282 281 280 280 280 279 280 280 280 280 280 279 279 279 279 279 279 279 279 279 279 279 280 280 281 282 284 287 289 289 290 290 290 290 290 291 291 290 290 290 289 289 289 289 290 290 290 290 290 290 290 290 290 290 290 290 290 291 291 291 291 291
285 285 285 286 286 286 286 286 286 287 286 285 284 284 284 285 286 285 285 284 284 283 282 281 280 279 278 280 279 278 278 278 279 279 279 279 279 279 278 279 279 279 279 279 279 279 279 279 280 280 281 284 287 289 290 290 290 290 290 291 291 290 290 290 289 289 289 289 289 290 290 290 290 290 290 290 290 290 290 290 290 290 290 290 290 290
288 287 287 288 289 290 290 290 290 289 288 287 286 285 286 286 285 284 283 283 283 282 281 279 278 277 277 278 278 278 278 278 278 278 279 278 278 278 278 278 278 278 278 278 278 279 279 279 279 279 279 281 285 289 289 289 289 290 290 290 290 290 290 290 289 289 289 289 289 289 289 289 289 289 290 290 290 290 290 290 290 290 290 290 290 290
291 291 291 291 291 291 291 291 291 291 291 290 288 287 286 285 284 283 282 282 282 281 280 279 278 277 278 277 277 277 278 279 278 278 279 278 278 277 278 278 278 278 278 278 278 279 281 280 279 279 279 279 282 287 289 289 289 290 290 290 290 290 290 290 289 289 289 289 289 289 290 289 289 289 290 290 290 290 290 290 290 290 290 289 288 288
292 292 292 292 292 292 291 292 292 291 291 291 291 290 288 285 283 282 281 282 282 281 280 279 278 278 277 277 277 277 278 279 279 278 278 279 278 277 277 278 278 277 277 277 279 280 282 281 280 279 278 279 281 284 287 288 289 289 290 290 290 290 290 290 289 289 289 289 289 290 289 289 289 289 290 290 290 290 290 289 289 289 289 288 286 285
291 292 291 292 292 292 292 291 291 292 292 292 291 290 288 285 283 282 282 282 282 281 279 279 279 278 278 277 277 277 277 278 279 279 279 278 278 277 277 278 278 277 277 277 277 278 278 279 278 277 277 280 281 282 284 286 287 288 289 290 290 290 290 289 289 289 289 289 289 289 289 289 289 289 289 289 290 290 289 289 289 289 287 285 284 283
289 290 290 290 291 291 290 290 290 291 292 291 291 290 288 285 283 282 283 282 282 281 280 280 279 279 278 277 276 276 276 278 279 280 279 278 277 277 277 278 277 277 277 276 275 275 275 277 277 277 278 280 281 280 280 282 284 285 285 287 288 289 289 289 289 289 289 289 289 289 289 289 289 289 289 289 289 289 289 289 289 287 285 283 282 282
287 287 287 287 287 288 288 288 289 290 290 290 290 289 287 285 283 283 283 282 281 281 280 280 280 279 279 278 277 276 276 277 279 281 279 279 278 277 277 277 277 276 276 276 275 275 275 276 278 279 279 279 279 279 280 281 281 281 282 283 284 286 288 288 288 288 288 288 289 289 289 289 289 289 289 289 289 289 289 289 288 287 284 282 281 281
285 285 285 285 285 286 286 287 287 287 287 287 287 287 286 285 284 283 282 282 281 280 280 280 279 279 279 278 277 277 277 277 280 282 280 279 278 277 277 277 277 276 276 276 275 275 274 275 277 278 278 278 278 279 280 281 280 280 280 281 281 282 286 287 287 287 287 288 288 288 288 288 288 288 288 288 288 288 288 288 288 287 283 282 281 281
284 284 284 284 285 285 285 285 285 285 285 284 284 284 284 284 284 284 282 281 281 280 280 280 279 279 278 278 278 278 277 278 280 283 282 279 278 277 277 277 276 276 276 276 275 275 274 274 275 276 277 277 278 279 280 281 281 280 280 280 280 280 284 285 285 285 286 286 287 287 288 288 288 288 288 288 288 288 288 288 288 287 285 282 281 281
284 284 283 284 283 284 284 284 284 284 283 283 283 282 282 282 282 283 282 281 281 280 280 280 279 278 278 277 277 277 277 278 281 284 283 280 278 277 277 277 276 276 275 275 275 274 274 274 274 275 276 277 278 278 279 280 281 281 279 279 279 279 281 282 282 282 283 283 283 283 285 285 286 286 287 287 287 287 287 287 287 287 287 284 283 282
283 283 282 282 282 283 283 283 283 283 283 282 282 282 281 281 281 281 281 281 281 280 280 280 279 279 278 278 278 277 277 278 281 284 284 280 278 277 277 276 276 276 275 275 274 274 274 274 275 276 275 276 276 277 278 278 279 280 278 279 279 279 279 279 280 280 281 281 280 280 280 281 282 283 285 285 286 286 287 287 287 287 287 286 285 283
281 281 281 281 281 282 282 283 283 282 282 281 281 280 280 280 280 280 280 280 281 281 281 281 280 280 279 279 279 278 278 279 281 284 284 281 279 278 277 277 277 277 276 275 274 274 273 274 275 276 276 275 275 276 277 278 279 279 279 279 279 279 278 279 279 278 279 279 279 279 278 279 280 281 282 285 286 286 286 286 286 286 286 286 286 286
280 280 280 280 280 281 282 281 281 281 280 280 280 280 280 279 279 279 279 279 279 280 281 281 281 281 282 280 279 279 279 280 281 283 283 281 279 278 277 277 277 278 277 276 275 274 274 274 275 275 275 274 274 275 276 277 278 278 278 279 278 278 278 278 279 278 277 279 279 279 279 279 280 281 282 285 285 285 285 286 286 286 286 286 286 286
280 280 279 279 279 279 280 280 280 280 280 280 279 279 279 279 279 279 279 279 278 279 279 279 280 281 282 282 281 280 279 280 280 280 281 279 278 278 277 277 277 278 277 276 276 275 274 274 273 273 273 273 275 276 277 277 277 276 277 278 278 277 277 277 278 278 278 279 279 280 281 281 280 280 280 281 281 281 281 281 282 284 285 285 285 285
279 279 279 279 279 279 279 279 279 280 280 280 280 279 279 279 279 279 279 279 278 278 278 278 279 279 279 280 281 282 280 279 278 278 277 277 277 277 277 276 276 276 276 276 275 275 274 273 272 272 272 273 274 275 275 275 275 275 275 276 277 277 277 278 278 278 279 278 279 280 280 279 278 278 277 278 278 278 278 278 279 281 281 280 281 283
279 279 279 280 280 279 279 280 280 280 280 280 280 280 280 280 279 279 279 279 279 278 278 278 278 278 278 280 280 280 280 279 279 278 276 275 275 276 277 276 276 275 275 275 274 274 273 273 273 273 274 272 272 273 273 273 274 275 277 276 275 276 278 278 277 276 277 276 277 278 278 276 276 277 277 277 276 276 276 276 277 279 280 278 277 277
280 279 280 280 281 281 281 281 280 280 280 280 279 279 279 279 278 278 278 278 278 278 278 278 278 277 277 276 276 277 278 278 278 277 275 274 274 275 276 276 275 275 275 274 274 274 274 273 273 273 272 272 272 273 274 274 275 278 278 276 275 275 277 278 278 277 276 276 276 276 278 278 278 278 277 277 277 276 277 276 276 277 279 278 277 276
281 280 280 280 280 280 279 279 280 280 280 279 278 278 278 278 278 277 277 276 276 277 277 276 276 275 275 275 275 275 276 277 277 277 275 274 274 274 275 275 275 275 275 274 274 274 274 274 274 273 272 272 272 272 272 273 275 277 278 276 276 276 277 278 277 275 276 275 275 275 278 277 277 276 277 276 276 276 278 277 278 279 280 278 277 276
281 281 280 280 280 279 280 280 280 280 279 278 278 277 277 278 278 278 277 276 276 276 277 276 276 275 274 274 274 275 275 274 275 276 276 274 273 274 274 274 274 275 275 274 273 273 274 275 275 273 272 272 272 272 272 273 274 275 276 276 276 275 273 273 273 273 274 275 275 274 275 275 275 275 276 276 276 276 277 279 281 282 282 279 277 277
281 280 280 279 279 279 280 279 278 278 278 278 277 277 277 277 278 278 277 276 276 277 277 275 275 274 274 274 274 274 275 274 274 275 277 276 275 274 274 274 273 274 274 274 273 272 273 274 274 274 274 273 273 272 272 272 273 273 273 275 275 275 273 273 274 273 274 274 274 274 273 274 274 274 275 275 275 276 276 276 277 277 279 279 278 277
280 280 279 279 279 279 278 278 278 278 277 277 277 277 277 278 278 278 277 277 277 276 276 275 275 274 273 273 274 274 274 274 274 275 275 278 280 279 276 274 274 274 274 274 273 273 273 272 272 273 273 274 273 273 272 272 272 273 275 276 276 275 274 275 275 275 274 273 273 273 272 273 274 274 274 274 274 274 275 275 275 276 276 277 277 277
280 279 279 278 278 278 278 278 278 277 277 277 277 277 277 277 278 278 278 277 276 276 275 275 275 274 273 274 274 274 274 274 274 274 275 275 276 276 277 276 276 275 274 274 273 273 273 272 272 272 272 273 272 272 272 272 272 272 274 275 275 274 274 275 275 274 273 273 273 272 273 272 273 273 274 273 274 274 274 275 275 275 275 276 276 277
279 278 278 278 278 278 278 278 278 277 277 277 277 277 277 277 277 277 277 277 276 276 276 275 275 274 273 273 274 274 274 273 273 273 274 274 275 275 275 276 276 276 275 274 274 273 273 273 272 272 272 272 272 272 272 272 272 272 272 273 273 273 273 273 273 273 273 273 273 272 271 272 272 272 273 273 273 273 274 274 275 275 275 276 276 276
279 278 278 278 277 277 277 278 277 277 277 277 277 277 277 277 277 277 276 276 276 277 276 275 274 274 273 273 274 275 275 274 274 274 274 275 274 275 275 275 275 276 276 276 276 275 274 273 273 273 273 272 271 271 271 271 272 272 272 273 273 272 271 272 272 272 273 273 272 272 272 272 272 271 271 272 272 273 273 273 274 275 275 276 276 276
279 279 278 278 277 277 277 277 277 277 277 277 277 277 277 278 279 279 277 276 276 276 276 275 274 274 273 273 274 275 276 276 275 274 274 275 275 275 274 274 274 274 274 274 274 274 275 275 275 276 276 274 273 273 272 272 272 272 272 272 272 272 271 271 272 273 273 272 271 271 272 272 272 272 271 271 272 273 273 273 273 273 274 275 275 276
279 279 279 278 278 277 277 277 277 277 277 277 277 277 276 277 277 277 277 276 276 275 275 275 274 274 274 273 274 275 275 274 274 273 274 274 275 275 274 274 273 273 272 272 272 272 272 272 274 277 279 279 277 275 273 272 272 271 272 271 271 271 271 272 272 273 272 272 271 271 271 271 271 271 271 271 272 272 272 272 272 273 273 274 275 275
280 279 279 278 278 278 277 277 277 277 277 277 277 277 276 276 276 276 276 276 275 275 275 274 274 274 274 274 274 275 275 274 273 273 273 274 274 275 274 274 273 272 271 270 270 270 269 269 270 272 276 280 281 279 276 274 272 271 271 271 271 271 271 271 271 272 273 273 272 271 270 270 270 271 271 271 271 271 272 272 271 271 272 273 273 274
Wind_Speed
5 5 5 6 6 6 5 5 5 4 3 3 3 4 4 5 5 5 6 6 5 5 5 4 4 5 8 11 13 13 13 13 13 12 12 12 12 12 11 11 11 11 10 10 10 9 9 8 8 7 7 7 6 6 6 6 6 6 6 6 6 6 6 6 6 5 5 5 5 4 4 4 4 4 4 4 4 4 4 4 5 5 6 6 7 7
4 5 5 6 6 6 5 6 6 5 4 4 4 4 5 5 4 4 4 5 5 5 4 4 4 4 5 8 11 13 13 12 12 12 12 12 11 11 11 11 11 10 10 10 9 9 8 8 7 7 6 6 6 6 5 5 5 5 6 6 6 6 6 5 5 5 4 4 4 4 3 3 3 4 4 4 4 4 4 4 5 5 6 6 7 7
5 5 5 5 6 6 5 6 6 5 4 4 4 4 5 4 4 3 3 4 4 4 4 4 4 4 4 6 9 12 12 12 12 12 11 11 11 11 11 10 10 10 10 10 9 9 8 8 7 7 6 6 5 5 5 5 5 5 5 6 5 5 5 5 4 4 3 3 3 3 3 3 3 4 4 4 4 5 5 5 5 5 6 6 7 7
5 5 6 4 4 4 5 6 6 5 4 3 3 4 4 4 3 3 3 3 4 4 4 4 4 4 3 4 7 10 12 12 11 11 11 11 11 10 10 10 10 10 9 9 9 8 8 8 7 7 6 6 5 5 5 5 5 5 5 5 5 5 4 4 3 3 2 2 2 2 2 2 3 3 4 4 5 5 5 5 6 6 6 7 7 7
4 4 5 4 3 3 4 5 5 5 4 4 3 3 3 3 2 2 2 3 4 4 4 4 4 3 3 3 5 8 11 11 11 11 10 10 10 10 10 9 9 9 9 9 8 8 8 7 7 6 6 6 5 5 5 5 5 5 5 5 4 4 3 2 2 1 1 1 1 1 1 2 2 3 3 4 4 5 5 6 6 6 6 7 7 7
4 4 4 3 3 3 3 4 4 4 4 3 3 3 2 2 2 2 2 3 3 3 3 3 3 3 3 2 5 8 10 10 10 10 10 10 9 9 9 9 9 9 8 8 8 8 7 7 7 6 6 6 5 5 5 5 4 4 4 4 3 3 2 1 1 0 0 0 0 1 1 1 2 2 3 3 4 5 5 5 6 6 6 7 7 7
4 3 3 3 2 2 2 3 4 4 4 3 3 2 2 2 2 2 2 2 2 3 3 3 3 3 3 2 4 6 7 8 9 9 9 9 9 9 8 8 8 8 8 8 7 7 7 6 6 6 6 5 5 5 5 4 4 4 3 3 3 2 2 1 1 1 1 1 1 1 1 2 2 2 3 3 4 4 5 5 6 6 6 7 7 7
5 3 3 3 2 2 2 3 3 4 4 4 3 3 3 2 2 2 2 2 2 2 3 3 3 3 2 2 2 3 3 4 5 5 6 7 7 7 7 8 8 7 7 7 7 6 6 6 6 6 5 5 5 5 5 4 4 3 3 3 2 2 1 1 1 1 1 2 2 2 2 2 2 3 3 3 4 4 5 5 6 6 6 7 7 7
6 5 3 3 3 3 3 2 2 3 3 3 3 3 3 3 2 2 2 2 2 2 2 2 2 2 1 1 1 1 2 2 2 3 3 3 4 5 6 7 7 7 7 7 6 6 6 6 6 5 5 5 5 4 4 4 4 3 3 2 2 2 2 2 2 2 2 2 2 2 3 3 3 3 3 3 4 4 5 5 6 6 6 7 7 7
5 5 4 3 3 3 3 3 3 2 3 3 3 3 3 4 4 3 2 1 1 1 1 2 2 2 1 0 0 1 2 3 4 5 4 4 4 5 5 6 6 6 7 6 6 6 6 6 5 5 5 5 4 4 4 4 4 3 3 2 2 2 2 2 3 3 3 3 3 3 3 3 3 3 4 4 4 4 5 5 5 6 6 7 7 8
5 4 4 3 3 2 2 3 3 3 3 3 3 2 2 3 4 4 4 4 3 2 1 2 2 2 2 2 1 1 1 2 3 3 4 4 5 6 6 6 6 6 6 6 6 6 6 5 5 5 5 5 4 4 4 4 4 4 3 3 3 3 3 3 3 3 3 3 3 3 3 3 3 4 4 4 4 4 5 5 5 6 6 7 7 8
5 4 3 3 3 3 3 2 2 3 3 4 3 3 3 3 3 4 5 5 4 3 3 2 2 2 2 3 2 2 2 2 1 1 1 2 2 3 3 4 4 4 4 5 5 5 5 6 5 5 5 5 5 5 5 5 5 5 4 4 4 4 4 4 4 4 4 4 4 4 4 4 4 4 4 4 4 5 5 5 5 6 6 7 7 8
4 4 4 4 4 4 3 3 3 3 4 4 5 5 5 4 4 4 4 4 4 4 3 2 2 1 2 2 2 2 2 2 2 2 1 1 1 1 2 2 2 2 2 2 2 3 5 5 5 5 5 5 5 5 5 5 6 6 5 5 5 4 4 4 4 4 4 4 4 4 4 4 4 4 5 5 5 5 5 5 6 6 6 7 7 8
5 4 4 4 4 4 4 5 5 5 6 5 5 5 5 4 4 4 3 3 3 3 3 3 2 1 1 1 2 2 3 3 3 2 2 2 2 2 2 2 2 2 2 2 2 2 4 5 4 4 5 5 5 5 6 6 6 7 6 6 5 5 5 4 4 4 4 4 4 4 4 4 4 5 5 5 5 6 6 6 6 6 7 7 7 8
6 6 6 5 5 5 5 5 6 6 6 5 4 4 4 4 4 5 4 4 4 3 3 3 2 1 0 1 1 2 3 3 3 3 3 3 3 3 3 3 2 2 2 2 2 3 5 4 3 3 3 4 4 5 6 7 7 7 7 7 6 5 5 5 5 4 4 4 4 4 5 5 5 5 5 5 6 6 6 6 7 7 7 7 8 8
6 6 6 6 6 6 5 5 5 5 5 4 4 4 5 5 6 6 5 5 4 4 4 3 2 1 1 2 1 1 3 3 3 3 3 3 3 3 3 3 2 2 2 2 2 3 3 3 3 3 3 5 6 7 8 8 8 8 8 7 6 6 5 5 5 5 5 5 5 5 5 5 5 5 6 6 6 6 6 7 7 7 7 8 8 8
5 6 6 6 6 5 5 5 5 5 5 4 4 5 5 6 6 6 5 5 5 4 4 4 4 3 2 2 2 2 2 3 3 3 3 3 3 2 2 3 3 2 1 2 2 2 2 3 3 3 4 6 8 9 9 9 9 9 8 7 7 6 6 5 5 5 5 5 5 5 5 5 5 6 6 6 6 7 7 7 7 7 8 8 8 8
5 6 6 6 6 5 5 5 5 4 4 5 5 4 4 4 5 5 5 5 5 5 5 4 4 3 3 2 3 3 3 3 3 3 3 2 2 2 1 2 2 2 1 1 1 2 2 3 3 4 5 8 9 9 10 9 9 9 9 8 7 7 6 6 5 5 5 5 5 5 5 6 6 6 6 6 7 7 7 7 8 8 8 8 9 9
5 5 5 5 5 5 5 5 6 6 6 6 5 5 5 5 5 5 5 5 5 5 5 4 4 3 2 2 3 3 4 4 4 3 3 2 2 1 0 2 2 1 0 1 1 1 2 3 4 6 8 9 9 9 10 10 10 10 9 9 8 8 7 6 6 5 5 5 6 6 6 6 6 6 7 7 7 7 8 8 8 8 8 9 9 9
6 5 5 5 5 5 6 6 6 7 7 6 6 6 6 6 5 5 5 5 5 4 4 4 3 3 2 2 2 3 4 4 4 3 3 2 1 1 1 2 2 1 1 1 1 1 2 2 3 5 8 9 9 9 9 10 10 10 10 10 9 8 7 6 6 6 6 6 6 6 6 6 7 7 7 7 7 8 8 8 9 9 9 9 9 10
6 6 5 5 5 6 6 6 7 7 7 7 7 6 6 6 6 5 5 5 5 4 4 4 3 3 2 3 3 3 4 4 4 3 2 2 1 1 1 2 2 2 1 2 2 1 2 2 2 3 6 8 9 9 9 10 10 10 11 10 10 9 7 7 6 6 6 6 6 7 7 7 7 7 7 8 8 8 8 9 9 9 9 9 10 10
6 5 5 6 6 6 6 6 7 8 9 8 8 7 6 7 6 6 5 5 5 5 4 3 2 2 2 3 3 2 2 3 4 3 3 2 1 1 1 2 2 2 2 2 2 1 1 2 2 3 6 8 9 9 9 10 10 11 11 11 10 9 7 7 6 6 6 6 7 7 7 7 7 8 8 8 8 9 9 9 9 9 10 10 10 10
5 5 5 5 5 5 5 6 6 7 8 8 8 7 6 6 6 6 6 5 5 4 3 3 2 3 3 3 2 1 1 2 2 3 3 3 2 2 1 2 2 2 2 2 2 1 1 1 2 3 5 8 9 9 9 10 10 11 11 11 10 9 8 7 6 6 7 7 7 8 8 8 8 8 8 8 9 9 9 9 10 10 10 10 10 11
4 4 5 5 5 5 5 6 6 6 6 6 5 4 4 4 4 4 4 4 4 4 4 4 4 3 3 3 2 1 1 1 2 3 3 3 2 2 1 2 3 2 2 2 1 1 1 1 1 2 3 6 8 9 9 9 10 10 11 11 10 9 8 7 7 7 7 7 8 8 8 8 8 8 8 9 9 9 9 10 10 10 10 10 11 11
4 5 5 5 6 7 7 7 7 7 6 5 5 4 5 5 5 5 4 4 4 5 4 4 4 3 2 2 1 0 2 1 1 2 3 2 1 1 1 2 3 3 2 2 1 0 1 0 1 1 1 4 7 8 9 9 10 10 11 11 10 9 8 8 7 7 8 8 8 8 8 8 8 8 9 9 9 10 10 10 10 10 10 11 11 11
7 7 8 9 11 12 12 12 12 12 10 8 6 5 6 6 6 5 5 4 5 5 5 4 3 2 1 1 1 1 2 1 1 2 3 3 2 1 1 1 2 2 2 1 1 0 1 1 1 1 1 3 5 7 8 9 10 10 11 11 10 10 9 8 8 8 8 8 9 9 8 9 9 9 9 9 10 10 10 10 10 10 11 11 10 10
12 13 14 15 15 16 16 16 16 16 15 12 10 9 7 7 7 6 5 5 5 5 5 4 3 2 2 1 1 1 1 0 0 1 2 3 2 1 1 1 2 2 1 1 1 1 1 1 1 2 1 2 3 5 8 9 10 10 11 11 10 10 9 9 9 9 9 9 9 9 9 9 9 9 10 10 10 10 10 10 11 11 10 10 8 8
14 15 15 16 16 16 17 17 17 16 16 15 15 13 10 8 7 7 7 6 6 5 5 4 4 3 2 2 2 1 1 1 1 1 2 3 2 1 2 1 2 2 1 1 1 1 1 1 2 2 1 1 1 3 5 8 9 10 11 11 10 10 9 9 9 10 9 9 9 9 9 9 9 10 10 10 10 10 10 11 11 10 9 7 5 3
14 14 15 15 16 16 16 15 15 16 16 16 15 13 9 6 6 7 6 6 6 5 5 4 4 3 3 2 2 1 0 2 2 2 3 3 2 1 2 1 2 2 2 0 1 2 2 1 1 1 1 1 1 2 3 5 7 8 9 10 10 10 10 10 10 10 9 9 9 9 9 9 10 10 10 10 10 10 10 11 10 9 6 4 3 2
10 10 11 12 12 12 11 11 11 13 15 15 13 11 7 4 4 4 5 5 6 5 5 4 4 3 3 3 2 1 1 3 3 3 3 3 2 2 1 2 2 2 2 1 1 1 2 2 2 1 1 1 1 1 2 3 3 4 5 7 8 8 9 9 9 9 9 9 9 9 9 9 10 10 10 10 10 10 10 11 9 7 3 2 2 2
6 6 6 6 6 6 6 6 7 9 10 11 9 7 4 3 3 3 4 4 5 5 5 4 4 4 4 4 3 2 2 3 4 4 4 3 2 2 2 2 2 2 2 2 2 0 1 2 2 2 1 0 1 1 2 2 2 2 2 3 4 5 7 8 8 8 8 8 8 9 9 9 9 10 10 10 10 10 10 10 9 6 2 2 2 2
6 6 5 5 4 4 4 4 4 5 5 5 5 4 4 4 4 4 3 3 3 3 4 4 4 4 4 3 3 3 2 3 4 5 5 3 2 2 2 3 2 1 1 2 2 2 1 1 2 2 1 1 1 1 2 3 3 3 3 3 2 3 5 6 7 7 7 7 8 8 9 9 9 9 9 9 9 9 10 10 9 7 3 2 2 3
5 5 4 4 4 4 4 4 4 4 4 3 3 3 4 4 4 4 3 2 2 3 3 4 4 4 3 3 2 2 1 2 4 6 6 4 2 2 2 3 2 2 1 1 2 2 2 1 1 1 1 1 1 1 2 3 3 4 4 3 3 3 4 4 4 4 4 4 5 6 7 8 9 9 9 9 9 9 9 10 9 8 6 3 3 3
5 5 5 4 4 4 4 3 3 3 3 3 3 3 3 4 4 4 4 3 3 3 3 3 4 4 4 3 2 1 1 2 4 7 6 4 3 2 2 3 3 2 2 1 1 1 1 1 1 1 1 1 1 1 2 3 3 4 4 4 4 3 3 2 2 2 2 2 2 3 4 5 6 7 8 8 8 9 9 9 10 10 9 6 4 4
5 5 4 4 4 4 4 4 3 3 3 3 3 3 3 3 3 4 4 4 3 3 3 3 3 3 4 3 3 2 2 2 4 6 6 4 3 2 2 3 3 3 3 2 2 1 0 1 1 1 0 1 2 2 2 2 2 3 3 3 3 3 3 2 2 2 2 2 2 2 2 2 3 4 5 6 7 8 9 10 10 11 11 10 8 6
4 4 4 4 4 4 4 4 4 4 3 3 3 3 3 3 3 3 3 4 4 4 4 3 3 2 2 3 3 3 3 3 5 6 5 4 3 3 2 2 3 3 3 3 2 2 1 1 1 1 1 0 1 2 2 1 0 1 1 2 2 2 2 2 2 2 2 2 2 2 2 2 2 3 3 6 7 8 9 10 10 11 11 12 11 9
4 4 3 3 3 4 4 4 4 4 3 3 3 3 3 3 3 3 4 4 4 4 4 4 4 4 4 3 2 2 3 4 4 4 4 3 3 3 2 2 2 3 3 3 3 2 2 1 1 0 0 1 1 2 2 2 1 1 0 1 1 1 2 2 2 2 2 2 2 2 2 2 2 2 3 6 7 7 8 9 10 10 11 12 12 12
4 4 3 3 3 3 4 3 3 4 3 3 3 3 4 4 4 4 4 4 4 4 4 4 4 5 6 6 5 4 4 4 4 4 3 3 3 3 3 2 2 2 2 3 3 3 3 2 2 1 1 1 2 2 2 1 1 1 1 1 1 1 1 1 1 1 2 2 3 3 3 2 2 2 2 3 3 3 4 4 6 7 9 9 10 12
4 4 4 3 3 3 3 3 3 3 3 4 4 4 4 4 4 4 4 4 4 4 4 4 4 4 5 5 6 6 5 4 4 4 4 3 3 2 3 2 2 1 1 2 3 3 3 3 3 3 2 1 2 2 1 1 0 1 1 2 2 1 1 1 1 1 2 2 2 3 2 2 1 1 1 1 1 1 2 2 3 4 4 4 6 8
4 4 4 4 4 3 3 3 3 3 4 4 4 5 4 4 4 4 4 4 4 4 4 4 4 4 4 4 4 5 4 3 3 3 3 2 2 2 2 3 2 2 1 2 2 3 3 3 3 3 3 2 1 1 1 1 1 0 1 1 2 2 2 1 1 1 1 1 2 2 2 2 1 1 1 1 1 1 1 2 2 2 2 2 3 4
4 4 4 4 3 3 3 3 3 4 4 4 4 4 4 4 4 3 3 3 3 3 3 4 4 3 3 3 3 3 2 2 2 2 2 2 2 2 3 3 2 2 2 2 2 2 3 3 2 2 2 2 1 1 1 1 1 0 1 0 1 2 3 2 2 1 1 1 2 2 2 2 2 1 1 2 2 2 2 2 2 2 2 2 2 2
5 4 4 3 3 3 3 3 4 4 5 4 4 4 4 4 4 3 3 3 2 2 2 2 2 2 2 2 2 2 1 1 1 2 2 3 3 3 3 2 2 2 2 2 2 1 2 2 3 3 3 2 1 1 2 2 2 1 1 1 1 2 3 3 2 1 1 1 1 1 2 1 1 2 2 2 2 2 2 2 2 3 4 3 2 2
5 4 4 3 3 3 4 4 4 4 4 4 4 3 3 3 4 4 4 3 3 3 2 2 2 2 2 1 1 1 1 1 0 1 3 3 3 3 3 2 2 2 3 2 1 1 1 2 2 2 3 3 2 2 2 2 2 1 1 1 0 1 2 2 2 1 1 1 1 1 1 1 2 2 2 2 2 2 1 2 4 5 5 4 3 3
4 3 3 3 3 4 4 4 4 4 4 4 4 3 3 3 4 4 3 3 3 3 3 2 2 2 2 1 1 1 1 1 1 0 2 3 4 4 3 3 3 3 3 3 2 2 1 1 2 2 2 2 2 2 3 2 2 2 2 2 2 2 3 2 2 1 1 1 1 1 2 2 2 1 1 1 1 1 1 2 2 3 4 4 4 4
3 3 3 3 4 4 4 4 4 4 4 4 4 3 3 3 4 4 3 3 3 3 3 3 3 2 1 1 1 1 1 1 1 1 1 3 4 5 4 3 3 2 2 3 3 3 2 2 2 2 1 1 2 3 3 3 3 2 3 3 3 3 4 3 2 1 2 2 2 2 2 1 0 1 1 2 2 2 2 2 3 3 4 4 4 4
3 3 3 3 4 4 5 4 4 4 3 3 3 3 3 3 3 4 4 4 3 3 3 3 3 2 2 2 2 1 1 1 1 1 1 1 2 2 3 3 3 2 2 2 2 3 3 3 2 1 1 0 1 3 4 4 3 3 3 3 3 3 3 3 3 2 3 2 2 2 2 0 1 1 2 2 2 2 2 2 3 3 4 4 4 4
4 4 4 4 4 4 4 4 4 4 4 4 3 3 3 3 3 3 4 4 4 3 3 3 3 3 3 2 2 2 2 2 2 2 2 2 1 1 2 2 2 2 2 2 2 2 2 3 3 2 2 1 2 3 3 3 3 3 3 3 2 2 3 3 3 2 3 2 2 2 0 1 1 1 2 2 3 3 3 3 3 3 4 4 4 4
5 5 4 4 4 4 4 4 4 4 4 4 3 3 3 4 4 4 3 3 4 4 4 3 3 3 3 3 3 3 3 3 3 3 3 3 2 2 2 2 2 1 1 1 1 2 2 2 3 3 3 3 3 3 3 3 3 3 3 2 2 2 3 3 3 2 2 2 2 1 1 1 0 1 2 2 3 4 3 3 3 3 3 4 4 4
5 5 5 4 4 4 4 4 4 4 4 4 4 3 3 4 5 5 3 3 3 4 4 4 4 4 4 3 3 3 3 3 3 3 3 3 3 3 2 2 2 1 0 1 1 1 2 2 3 4 5 5 5 4 4 3 3 3 2 2 2 2 3 3 2 2 1 1 1 1 1 1 1 1 0 2 4 5 4 4 3 3 3 4 4 4
5 5 5 5 5 5 4 4 4 5 5 5 4 4 3 4 4 4 3 3 3 4 4 4 5 4 4 4 4 4 4 3 3 3 3 3 3 3 3 3 2 2 1 1 1 2 2 3 4 5 8 9 9 7 5 4 3 2 2 2 2 2 2 2 2 2 1 1 0 0 1 1 1 1 0 2 4 5 5 4 4 3 3 3 3 3
5 5 5 5 5 5 5 5 5 5 5 5 5 5 4 4 4 3 3 3 4 4 4 4 4 5 5 5 4 4 4 3 3 3 3 3 4 4 4 4 3 3 2 1 1 1 1 2 2 4 7 11 14 12 7 5 4 3 2 2 2 2 2 2 2 1 1 1 1 1 1 1 1 1 0 1 3 5 5 5 4 3 3 2 2 3
Wind_Direction
140 145 150 151 148 147 150 151 149 145 146 137 129 126 126 125 121 115 112 109 107 104 103 105 109 119 129 135 137 139 140 140 140 139 137 135 132 130 128 125 123 121 118 116 114 112 111 110 109 108 108 108 109 109 108 106 103 99 93 88 83 80 78 75 72 68 63 57 51 44 35 24 13 4 359 359 359 0 1 359 356 352 347 344 344 347
137 141 148 151 150 149 150 156 156 154 149 144 140 137 135 133 128 121 112 112 111 111 109 108 107 111 120 135 140 142 143 143 142 141 139 136 134 132 130 128 126 124 122 120 119 117 116 115 114 113 112 112 111 110 108 104 100 94 88 83 78 74 72 70 69 66 61 55 48 39 27 13 2 355 353 351 352 352 353 353 352 349 346 344 345 348
143 145 152 155 154 153 152 159 160 158 151 147 144 141 138 134 130 122 115 116 117 116 117 116 112 111 116 133 142 146 146 145 144 142 140 138 136 134 132 130 129 127 126 124 123 122 122 121 121 121 120 120 118 116 111 106 100 95 88 82 77 72 69 67 66 64 61 55 46 34 18 3 354 348 348 346 346 346 346 348 348 347 345 344 345 347
148 150 155 154 154 154 153 157 158 157 152 146 142 138 135 131 123 113 105 111 116 120 122 120 118 115 116 132 144 148 148 147 145 144 142 140 138 137 135 134 132 131 129 128 128 128 127 128 129 129 130 130 128 124 119 112 106 99 93 88 83 78 73 70 67 67 65 59 46 27 7 354 346 343 342 341 340 341 342 344 346 346 345 344 344 346
151 152 153 151 150 148 149 151 152 151 147 143 141 137 132 123 112 97 83 91 103 113 120 120 119 118 119 129 146 150 150 149 147 145 144 142 141 140 139 137 136 134 133 133 132 133 133 134 136 138 139 140 138 134 128 120 113 106 101 97 93 89 85 81 79 77 78 65 37 5 346 337 334 333 333 333 334 336 339 341 343 344 343 343 343 343
152 150 148 147 144 142 143 148 150 149 144 144 142 138 126 115 105 96 85 85 91 99 106 108 109 110 114 131 149 152 150 148 147 146 145 144 144 143 142 141 139 138 137 137 137 137 139 141 143 145 147 148 146 142 137 129 121 115 110 107 106 104 104 105 108 125 245 272 284 295 303 307 313 316 319 323 327 331 334 337 339 340 340 340 340 340
145 144 142 137 132 128 132 145 152 153 151 149 146 138 122 111 103 98 92 87 84 84 85 83 83 85 90 120 142 146 145 144 144 144 145 146 146 146 145 145 143 142 142 142 142 143 145 147 150 152 154 155 153 150 144 138 131 125 121 121 121 123 130 148 189 233 259 275 280 283 285 288 294 300 306 314 320 325 328 331 334 335 336 336 336 337
141 142 142 135 128 123 126 140 151 156 155 152 150 147 140 131 118 100 78 68 69 74 80 78 74 70 63 80 110 123 126 129 133 137 142 145 147 149 149 149 148 148 147 147 149 150 152 155 157 159 161 161 160 157 152 147 142 139 136 137 141 149 166 192 220 241 256 270 279 285 288 292 295 300 303 311 317 321 324 326 329 331 332 332 333 334
143 146 148 141 137 135 135 141 151 154 153 150 150 151 151 149 142 124 88 67 62 72 90 96 95 88 63 53 71 92 109 122 130 138 145 147 152 155 154 155 155 154 155 156 158 160 162 164 165 166 168 168 167 165 161 157 155 155 157 161 167 177 192 210 226 240 250 262 272 280 287 293 299 304 307 311 315 319 321 324 326 327 328 329 330 330
139 142 142 139 139 139 140 145 149 147 141 139 142 147 150 152 150 147 140 148 133 99 101 119 129 135 143 140 130 134 142 155 162 165 166 167 171 172 164 163 162 162 165 166 168 170 173 174 174 174 174 175 175 174 171 169 170 173 179 187 193 200 208 219 230 240 248 256 264 272 280 288 295 300 303 307 311 314 317 320 322 323 324 325 326 327
137 137 134 133 131 130 129 138 140 136 128 126 125 130 146 157 158 158 163 172 175 168 144 143 146 149 154 168 180 174 158 161 165 168 164 165 168 169 166 167 168 170 172 174 178 181 184 184 183 183 182 183 184 183 181 181 183 188 196 203 208 212 217 224 233 241 248 255 261 267 273 280 286 292 296 301 304 308 311 314 316 318 320 321 322 324
141 141 138 138 135 131 127 126 125 128 131 137 144 157 177 180 172 167 170 175 177 176 172 164 156 154 157 166 171 170 157 151 145 137 130 145 151 156 158 162 167 172 175 181 187 191 193 193 192 191 190 191 193 193 191 191 195 199 205 211 216 219 222 228 234 242 250 255 261 266 271 276 282 287 291 296 300 303 306 309 311 313 315 317 318 320
142 142 142 143 146 147 144 143 144 150 161 169 173 177 180 178 173 168 169 174 176 174 169 161 157 158 159 162 163 164 159 158 154 149 139 144 148 147 138 147 160 170 174 181 194 204 203 200 198 198 197 199 201 201 200 200 202 206 211 216 219 222 225 230 235 243 250 257 262 268 272 277 282 286 290 294 297 301 304 306 308 310 312 314 316 317
145 146 146 151 157 161 162 162 166 171 179 183 183 178 169 162 160 160 159 167 169 168 155 148 148 152 157 164 164 162 156 158 159 161 169 183 184 175 155 158 167 175 169 173 192 210 209 201 199 200 204 205 205 206 206 206 208 211 214 217 221 223 227 231 237 244 251 257 263 268 273 278 283 287 291 295 298 301 303 306 307 309 311 312 314 315
153 154 157 163 167 171 173 175 177 180 181 179 171 157 141 149 158 164 163 164 163 158 146 141 141 152 281 244 196 164 149 154 159 170 185 198 197 185 162 162 170 178 175 177 191 204 205 191 185 190 205 204 207 210 211 210 212 215 216 219 221 224 227 232 238 245 252 258 264 269 274 279 284 288 292 296 299 302 304 305 307 308 310 311 312 313
160 161 165 169 172 175 177 178 179 179 176 170 161 155 154 163 169 171 167 164 160 156 155 152 156 189 272 278 259 182 148 152 159 169 182 199 205 194 161 158 165 180 183 183 191 197 195 177 171 176 190 203 208 211 212 211 213 216 218 220 222 225 228 233 239 246 253 259 264 269 275 279 284 288 292 296 299 302 304 305 307 308 309 310 311 312
165 168 170 171 173 176 176 178 178 175 169 167 167 167 168 170 170 169 166 161 159 163 171 168 169 179 215 263 263 230 167 155 156 162 167 190 206 204 159 150 157 178 193 192 192 188 177 169 169 176 189 204 209 210 211 211 213 217 220 222 224 226 229 234 239 247 254 260 265 270 275 279 284 288 292 296 299 301 303 304 305 307 308 309 310 310
171 174 172 172 173 173 170 173 174 172 167 168 168 168 167 168 167 166 165 163 166 171 177 180 181 177 171 199 223 217 176 156 151 151 152 179 207 222 156 135 143 162 187 213 211 192 173 170 173 181 192 207 210 210 210 211 214 218 222 225 226 228 229 234 240 247 255 261 266 271 275 279 284 288 292 295 298 300 302 304 305 306 307 308 309 310
175 177 176 174 171 167 166 173 174 173 172 171 167 162 163 167 169 169 169 170 172 175 176 181 186 187 175 189 200 196 168 150 144 141 144 166 198 224 125 121 131 147 206 234 228 206 178 173 181 188 197 207 211 213 212 213 216 220 224 226 227 228 229 234 241 248 256 263 268 272 276 280 284 287 291 295 298 300 302 303 305 306 307 307 308 309
175 179 180 171 163 162 170 178 178 177 175 168 162 159 163 168 170 172 172 173 174 175 172 177 183 187 179 178 181 175 159 141 134 135 143 152 182 209 162 136 145 169 233 253 243 216 178 172 186 198 205 210 213 215 216 218 220 223 225 226 227 228 229 234 241 250 258 264 269 273 276 280 283 287 291 295 298 300 302 304 305 306 306 307 308 308
175 181 182 166 161 165 175 179 178 175 169 159 156 158 165 168 171 174 173 170 169 171 173 178 183 181 165 156 165 168 159 143 142 144 141 134 166 211 188 147 149 167 219 254 257 232 176 169 176 193 204 212 216 219 220 222 224 225 226 226 226 226 227 233 241 251 260 266 271 274 277 280 284 287 291 295 299 301 303 304 305 306 307 307 308 309
173 176 170 162 164 167 170 169 169 168 162 158 160 166 170 171 172 173 169 166 167 168 168 166 160 146 129 132 147 158 142 139 143 145 131 136 180 225 203 151 147 164 210 246 260 254 182 170 176 192 205 214 218 221 222 224 225 226 226 225 224 223 225 231 241 252 261 267 272 275 277 280 284 288 292 296 299 302 303 304 305 306 307 308 309 310
162 161 157 158 160 160 156 156 159 160 159 163 167 170 169 169 169 167 164 162 158 150 133 116 97 85 81 90 92 85 64 103 119 124 125 155 191 220 208 154 152 171 213 239 253 256 189 177 185 200 212 219 221 222 223 224 224 225 224 223 221 221 223 230 241 253 263 269 272 275 278 281 284 288 293 296 299 302 304 304 305 306 307 309 310 311
139 141 144 146 146 144 143 148 152 155 158 160 161 158 151 149 146 144 143 137 128 118 111 102 90 77 68 74 69 43 358 38 87 108 124 156 183 203 190 156 161 181 221 240 244 221 157 191 207 215 220 225 225 225 224 224 224 224 223 221 220 220 222 230 242 253 263 269 273 276 279 281 285 289 293 297 299 302 303 304 305 306 308 309 310 311
125 129 134 136 139 141 143 147 150 151 152 150 145 138 132 126 120 113 107 108 111 115 117 109 102 97 94 91 80 343 305 353 70 105 121 142 163 189 194 156 160 176 219 250 261 197 118 216 250 251 238 231 228 227 226 224 224 223 222 220 219 220 223 232 244 256 266 271 275 278 280 283 286 290 294 297 299 301 303 304 305 306 307 309 311 312
123 128 133 137 140 142 145 148 150 151 151 148 145 142 136 129 122 116 114 121 129 133 130 122 121 125 127 121 146 233 276 335 58 100 120 128 138 176 230 163 149 158 209 264 285 323 121 225 258 268 256 236 229 226 225 224 223 222 221 220 219 221 226 236 248 259 268 274 277 280 281 284 287 291 294 296 298 300 301 303 304 306 307 309 312 314
126 130 134 138 141 143 146 148 150 151 151 150 149 147 142 137 134 135 143 152 154 151 145 142 138 133 127 135 169 204 232 244 99 108 117 118 129 165 224 180 144 138 174 266 269 235 187 209 230 247 250 241 229 224 223 222 222 222 221 221 222 225 231 242 253 263 271 276 278 280 282 284 287 290 293 296 298 299 300 302 303 305 307 309 313 315
128 132 136 139 142 144 146 148 150 151 151 150 150 149 146 145 148 155 165 165 161 156 155 153 149 145 148 161 171 180 183 205 198 164 121 112 127 178 215 177 136 127 138 251 281 277 239 217 218 228 240 238 222 214 218 220 221 222 221 222 225 230 237 248 258 266 272 276 277 279 280 283 286 290 292 294 296 298 299 301 302 304 307 310 312 312
126 130 134 138 141 143 145 146 147 149 150 150 151 152 153 154 159 165 168 162 158 157 162 161 155 146 143 140 126 108 201 226 211 179 125 115 137 196 207 156 132 127 127 92 336 325 312 275 243 225 227 212 190 191 213 218 220 222 222 225 229 235 243 252 260 267 271 273 275 276 279 282 285 288 291 293 295 297 298 300 301 303 306 307 301 293
119 123 128 132 135 137 139 140 144 147 148 149 150 152 154 152 155 158 157 157 158 160 163 160 153 141 127 112 97 82 252 235 213 179 137 135 159 191 169 145 145 144 131 106 49 338 310 296 281 255 219 180 169 177 206 213 215 218 221 227 233 240 247 254 261 266 269 271 273 275 278 282 285 288 290 292 294 296 298 299 300 301 301 293 285 282
106 107 108 111 114 116 117 121 130 136 140 141 140 139 133 125 128 138 147 155 159 159 158 157 152 146 139 130 135 171 229 225 203 178 149 151 166 176 154 152 164 174 150 131 128 158 280 296 300 304 319 127 185 201 206 202 201 200 205 219 232 243 248 254 260 264 267 270 272 276 279 283 286 289 291 293 295 296 298 300 301 301 294 285 281 281
102 100 98 95 92 91 94 96 100 106 113 112 108 101 97 101 111 124 138 146 147 145 144 147 148 149 149 148 159 176 206 207 190 175 156 153 161 167 151 150 162 182 167 135 137 150 184 251 287 306 329 311 256 230 216 205 199 193 190 195 213 237 246 252 257 262 267 270 273 277 281 285 288 291 293 295 297 299 301 302 303 304 298 287 283 283
102 101 100 98 96 94 94 93 91 90 87 83 77 76 80 86 93 98 103 107 113 121 131 138 144 148 149 142 146 163 199 199 182 173 161 146 143 153 149 142 149 156 138 108 118 135 158 190 236 281 305 283 256 234 222 211 202 194 185 187 198 221 239 244 252 260 266 270 275 279 282 286 288 291 293 296 298 301 303 304 305 306 305 297 290 291
105 105 106 106 105 104 104 102 100 98 95 88 83 79 75 75 77 78 75 73 79 95 116 132 142 147 147 136 129 137 210 205 181 171 160 142 136 145 146 145 147 148 135 118 105 107 142 183 203 253 296 294 279 254 227 215 206 195 182 182 188 201 219 220 229 244 256 262 270 276 279 283 284 287 290 293 296 299 301 304 306 309 311 309 304 301
107 110 112 114 117 118 119 118 116 112 107 101 95 89 84 79 77 74 70 67 66 69 81 103 125 140 147 143 144 153 189 198 182 172 157 144 136 138 141 154 156 152 143 146 142 138 161 203 197 187 239 312 304 290 259 229 208 193 181 180 182 189 199 196 202 217 237 244 252 256 262 267 272 277 282 287 290 294 299 304 308 312 314 313 312 310
114 118 122 125 129 132 135 134 132 127 122 115 108 102 95 89 83 79 75 71 68 66 65 66 75 94 121 138 148 157 171 176 174 170 159 145 133 132 142 167 165 155 146 151 152 152 155 176 179 156 124 300 296 292 287 284 265 168 175 184 191 198 204 197 194 198 213 229 241 246 246 248 248 254 264 281 288 294 301 307 311 314 314 314 312 311
126 132 137 138 140 141 143 142 140 137 133 127 121 113 107 99 92 86 81 76 74 71 67 63 61 61 63 81 109 133 146 152 156 156 149 135 127 129 142 165 166 156 148 154 155 150 137 133 112 73 106 190 232 261 281 316 350 12 283 224 220 224 235 222 204 194 201 223 236 241 240 239 241 248 259 279 290 300 306 310 312 313 313 312 310 309
138 144 151 152 150 148 146 146 146 144 141 136 131 125 117 109 103 97 90 84 80 79 77 69 63 58 54 58 65 77 97 114 122 124 119 114 114 119 130 141 146 147 145 150 149 143 134 135 140 168 236 232 235 242 257 310 342 333 293 288 271 254 251 245 223 206 210 230 241 245 243 238 237 247 266 283 299 314 314 311 309 309 310 310 308 306
152 157 163 164 161 157 154 154 153 149 142 137 133 127 118 110 104 98 93 88 84 83 82 81 76 67 56 56 59 65 73 82 90 94 95 97 101 111 121 128 136 140 133 132 132 134 138 147 161 175 191 220 247 262 279 288 278 279 300 328 330 317 287 266 241 227 223 231 244 253 256 250 243 247 263 279 303 314 305 302 302 306 312 314 310 305
161 164 168 168 167 164 162 159 152 144 136 131 126 121 115 110 103 95 88 84 80 78 78 78 76 70 58 55 55 57 62 65 71 78 84 88 96 107 117 126 133 136 122 110 116 125 135 149 164 176 179 184 205 246 286 285 267 260 27 358 332 311 302 294 275 253 231 220 227 240 254 256 253 248 253 255 256 258 264 277 292 302 311 313 310 305
164 165 168 166 160 151 143 141 138 133 130 128 124 122 121 119 115 107 96 85 77 73 73 71 66 57 42 36 36 43 53 60 66 74 88 98 102 105 109 119 125 125 116 107 108 121 137 149 162 175 181 176 187 217 256 261 258 247 81 263 269 275 284 284 277 265 256 243 231 228 235 249 256 256 252 253 245 237 234 248 274 289 297 289 284 288
165 164 165 158 146 137 129 126 124 125 125 126 128 132 135 134 131 126 120 110 101 93 85 82 76 66 45 16 4 3 21 54 96 111 117 118 115 113 112 119 121 120 114 109 111 131 156 160 168 177 183 174 178 218 260 266 269 267 225 224 268 302 309 298 290 275 247 259 258 247 230 242 251 254 253 257 256 253 249 251 273 285 291 285 276 268
166 162 153 142 134 129 126 122 123 125 128 130 135 139 139 137 135 134 131 130 130 129 121 111 104 101 96 47 330 319 317 316 140 141 143 140 137 133 131 132 129 125 120 122 135 174 198 185 184 184 182 166 169 198 239 256 266 266 248 218 200 350 317 298 300 306 282 261 256 246 228 230 235 242 247 251 257 264 275 282 287 289 290 287 281 273
154 143 134 129 126 123 122 125 130 135 137 140 142 144 141 138 136 134 132 134 138 139 134 120 105 99 104 137 235 262 279 298 313 162 162 167 162 153 147 144 140 133 130 141 153 166 183 209 213 204 181 165 175 200 225 236 244 246 244 218 198 196 219 243 264 292 311 289 270 252 234 230 236 250 267 268 273 279 289 289 289 287 284 280 276 273
137 131 130 133 134 135 138 141 142 141 140 144 146 147 147 145 142 141 139 140 143 146 145 133 120 116 142 197 210 212 219 254 276 266 224 189 178 169 158 156 153 149 146 155 159 159 159 188 214 223 194 172 188 208 224 230 237 241 243 233 225 223 227 236 243 251 264 270 269 263 250 239 262 313 309 296 290 286 282 285 284 282 280 277 275 273
136 137 141 144 148 151 153 152 147 143 142 145 149 152 154 151 147 146 146 145 148 152 157 149 148 156 183 195 194 186 178 191 205 221 233 219 197 179 167 169 170 170 169 171 168 165 164 172 177 175 126 187 231 230 225 221 225 235 244 240 241 245 255 258 251 237 229 237 249 256 255 323 41 348 296 289 286 283 277 271 270 271 275 275 274 273
150 150 153 155 156 157 156 153 150 149 151 156 159 161 159 151 149 149 150 150 151 153 159 160 167 179 192 193 189 184 181 188 194 200 202 203 200 186 178 180 184 185 184 185 185 184 181 174 164 155 146 197 246 252 242 225 218 222 232 234 236 241 252 255 249 234 215 217 227 237 244 57 38 325 284 285 286 284 279 271 265 264 267 271 273 273
157 156 158 158 158 158 158 158 158 160 163 167 168 166 164 162 163 163 158 157 156 158 163 170 182 195 204 207 205 199 192 190 190 189 189 189 188 184 178 180 185 196 207 216 223 222 214 199 187 180 177 194 223 242 248 233 221 216 220 219 221 228 237 245 246 237 221 219 215 201 143 122 151 257 282 293 292 288 283 279 274 268 265 267 270 271
158 159 161 162 163 165 168 168 168 169 172 172 170 169 169 173 176 175 169 164 162 165 171 179 187 195 205 214 218 214 205 195 188 183 183 181 179 176 173 172 169 168 175 316 315 306 290 261 235 220 210 210 220 234 245 238 229 220 217 213 210 215 226 239 245 245 235 228 215 183 144 150 162 175 233 293 293 290 288 285 279 271 264 263 264 267
161 162 164 166 169 174 175 174 174 175 177 176 175 172 170 175 178 178 171 168 169 173 178 183 187 193 202 210 215 216 213 199 186 180 179 174 169 167 167 164 159 147 102 31 7 353 338 308 275 249 232 224 222 224 233 235 232 228 228 226 215 209 214 229 237 237 219 213 197 152 112 116 127 125 98 293 291 290 290 287 280 273 265 263 266 270
168 168 170 172 176 178 178 178 178 179 181 180 178 174 170 174 177 177 174 177 182 185 186 186 188 193 202 207 212 214 212 201 190 184 181 170 165 163 165 163 159 151 136 112 69 21 352 330 304 274 246 227 218 214 216 216 214 216 230 235 225 205 201 217 226 228 203 175 148 114 90 58 45 43 63 291 289 290 291 288 281 273 265 267 274 282